Location: Fort Worth, Tx
(32.7431°N, 97.3695°W)
Time: 20:13:01
(UTC-04:00)

S-56A Canister/Altair - Pass Details

Date: 02 March 2024
Orbit: 639 x 2488 km, 38.9° (Epoch: 17 April)

Event Time Altitude Azimuth Distance (km) Brightness Sun altitude
Rises 05:08:07 0° 185° (S) 5,995 11.9 -35.7°
Reaches altitude 10° 05:15:22 10° 163° (SSE) 4,694 11.5 -34.2°
Maximum altitude 05:20:28 13° 139° (SE) 4,137 11.5 -33.2°
Drops below altitude 10° 05:25:01 10° 114° (ESE) 4,098 11.8 -32.3°
Sets 05:30:18 0° 90° (E) 4,672 12.6 -31.2°
